Location: Cointrin
(46.2167°N, 6.1167°E)
Time: 16:24:05
(UTC+00:00)

Cosmos 1340 - Pass Details

Date: 08 February 2023
Orbit: 479 x 484 km, 81.2° (Epoch: 21 March)

Event Time Altitude Azimuth Distance (km) Brightness Sun altitude
Rises 18:09:48 0° 344° (NNW) 2,557 6.4 -14.1°
Reaches altitude 10° 18:11:57 10° 339° (NNW) 1,674 5.5 -14.5°
Maximum altitude 18:15:29 49° 264° (W) 635 3.6 -15.1°
Drops below altitude 10° 18:19:01 10° 188° (S) 1,666 5.4 -15.7°
Sets 18:21:09 0° 183° (S) 2,544 6.3 -16.1°
